CZ-3C R/B, 44232

Orbit data source: Space-Track

CZ-3C R/B, 44232 is space debris in HEO originally from a launch on Fri, 17 May 2019 UTC launched from the Xichang Space Center, China (XSC). Debris objects in space refer to the collection of defunct objects orbiting the Earth. Examples of debris include non-operational satellites, rocket bodies, and fragments generated from explosions, collisions, or faulty payload assembly.

Loading next visibility...
Identifier
44232, 2019-027B
Orbit
HEO
Country
Flag of CNCN / PRC
Related business
Manufacturer
CALT
Mission
Spacecraft
Bus & Motor
CZ-3C STAGE 3, Unknown motor
Mass
~2,800 kg wet, ~2,800 kg dry
Launch date (UTC)
2019-05-17 (7 years ago)
Launch vehicle
Unknown
Launch site
Xichang Space Center, China (XSC)
Object type
Payload
Rocket body
Debris
Shape & HBR
Cyl + 1 Nozzle, 6.2 m
Radar Cross Section
32.704 m², Large (>1 m²)

Expand to show TLE details & history
Last TLE update: 18 hours ago

TLE from 18 hours ago
0 CZ-3C R/B
1 44232U 19027B   26071.53926975  .00011228  00000-0  93219-3 0  9997
2 44232  19.4900 280.1213 6349592 337.0720   4.0470  3.56646934 69542
Epoch: 2026-03-12T12:56Z
TLE epoch observation values (Epoch: 2026-03-12T12:56:32.906Z)
Latitude
0.00048°
Longitude
-84.18518°
Altitude
447.493 km
Speed
9.734 km/s
True Right ascension
18h 40m 33s
True Declination
0° 00' 02"
Sunlit
Object was in daylight at epoch
Visualization orbit readout
Latitude
Unknown
Longitude
Unknown
Altitude
Unknown
Speed
Unknown
Apparent Right ascension
Unknown
Apparent Declination
Unknown
Sunlit
N/A
Visualization observer readout
Local Sidereal Time
11:41:32
Azimuth
Unknown
Elevation
Unknown
Doppler factor
Unknown
Orbital elements
Apogee altitude
23,214.857 km
Perigee altitude
229.153 km
Semi-major axis
18,100.142 km
Eccentricity
0.63496
Inclination
19.49°
RAAN
280.1213°
Arg. of periapsis
337.072°
True anomaly
22.97456°
Mean anomaly
4.047°
Eccentric anomaly
10.97006°
Mean motion
0.89129 °/min
Orbital period
403.91 mins
BSTAR
0.00093219
Loading maneuver chart data...
Computing Atmospheric mass density...
Loading historical data...
Loading historical data...
Loading historical data...
Loading historical data...
Loading historical data...
Loading historical data...
Loading historical data...
Other satellites on launch #27 in the year 2019 (2019-05-17 UTC)

Documentation

Showing up to 5 results
|